レオナード彗星

C/2017 W2 ( Leonard )

English version
Home page
Updated on December 23, 2017

---------------------------------------------------------------------

・ プロフィール

発見日 2017年11月26日
発見光度 20.2等
発見者 G. J. Leonard (Mount Lemmon)

・ 軌道要素

Epoch 2017 Oct. 14.0 TT = JDT 2458040.5
T 2017 Oct. 31.89234 TT                                 MPCW
q   3.9560247            (2000.0)            P               Q
n   0.01954624     Peri.  168.98669     -0.68691527     -0.02766547
a  13.6487798      Node   312.80844     +0.56857798     +0.60190326
e   0.7101554      Incl.   98.15530     +0.45262180     -0.79808965
P  50.42
From 87 observations 2017 Nov. 26-Dec. 19, mean residual 0".4.

・ 光度変化

        m1 = 11.0 + 5 logΔ + 10.0 log r

---------------------------------------------------------------------

軌道要素はM.P.E.C. 2017-Y43に掲載されたものです。
光度グラフはComet for Windowsで作成したものです。

---------------------------------------------------------------------

Copyright(C) Seiichi Yoshida (comet@aerith.net). All rights reserved.